Location: Hawks Ness
(60.2333°N, 1.1667°W)
Time: 14:11:10
(UTC+00:00)

USA 32 - Pass Details

Date: 22 October 2019
Orbit: 778 x 782 km, 85.0° (Epoch: 28 October)

Event Time Altitude Azimuth Distance (km) Brightness Sun altitude
Exits shadow 03:57:48 14° 178° (S) 2,043 6.0 -23.1°
Maximum altitude 04:02:16 74° 95° (E) 817 4.2 -22.6°
Drops below altitude 10° 04:07:32 10° 11° (NNE) 2,351 6.9 -22.0°
Sets 04:09:54 0° 10° (N) 3,283 7.6 -21.7°
